{"data":{"norad_id":65218,"intl_designator":"2025-176W","name":"STARLINK-34833","alt_names":[],"object_type":"PAYLOAD","status":"ACTIVE","operator":null,"country":"US","launch_date":"2025-08-14","launch_site_code":"AFETR","launch_vehicle":null,"mission":null,"orbit_class":"UNKNOWN","rcs_meters":null,"size_class":null,"mass_kg":null,"dimensions":null,"purposes":["comms"],"wikipedia_slug":null,"has_3d_model":false,"image_url":null,"decayed_at":null,"tle_current":{"epoch":"2026-05-24T18:14:05.311680Z","epoch_age_seconds":91932,"freshness":"FRESH","line1":"1 65218U 25176W   26144.75978370  .00009238  00000+0  28420-3 0  9996","line2":"2 65218  53.1581 158.9261 0001164  82.6534 277.4600 15.34401244 44775","mean_motion":15.34401244,"eccentricity":0.0001164,"inclination_deg":53.1581,"raan_deg":158.9261,"arg_perigee_deg":82.6534,"mean_anomaly_deg":277.46,"bstar":0.0002842,"rev_number":4477,"period_min":93.847681995232,"perigee_km":461.90326940586,"apogee_km":463.49581615302,"semimajor_km":6840.8365427794,"source":"CELESTRAK","updated_at":"2026-05-25T13:38:20.721894Z"}}}